Weather Roundup
Issued by NWS Chicago, IL

Home | Current Version | Previous Version | Graphics & Text | Print | Product List | Glossary On
Versions: 1 2 3 4 5 6 7 8 9 10 11 12 13 14 15 16 17 18 19 20 21 22 23 24 25 26 27 28 29 30 31 32 33 34 35 36 37 38 39 40 41 42 43 44 45 46 47 48 49 50
000
NZUS59 KLOT 220600
HRRLOT

CHICAGO AREA WEATHER ROUNDUP
NATIONAL WEATHER SERVICE CHICAGO/ROMEOVILLE IL
1200 AM CST MON DEC 22 2014

NOTE: "FAIR" INDICATES FEW OR NO CLOUDS BELOW 12,000 FEET WITH NO
SIGNIFICANT WEATHER AND/OR OBSTRUCTIONS TO VISIBILITY.

* THESE STATIONS ARE NOT UNDER NWS QUALITY CONTROL. THEY ALSO MAY NOT
  REPORT WEATHER SUCH AS PRECIPITATION OR FOG.

ILZ005-006-012>014-019>023-220700-
NORTHEAST ILLINOIS

CITY           SKY/WX    TMP DP  RH WIND       PRES   REMARKS
OHARE          MOCLDY    31  27  85 SE10      30.01F WCI  22
6HR MIN TEMP:  31; 6HR MAX TEMP:  36;

MIDWAY         MOCLDY    34  28  79 S10       30.02F WCI  26
6HR MIN TEMP:  34; 6HR MAX TEMP:  38;

AURORA         MOCLDY    33  27  78 SE12      29.99F HAZE    WCI  24
6HR MIN TEMP:  33; 6HR MAX TEMP:  37;

WAUKEGAN       MOCLDY    33  27  78 SE8       30.01F WCI  26
6HR MIN TEMP:  33; 6HR MAX TEMP:  35;

DUPAGE AIRPORT MOCLDY    32  27  81 SE10      29.99F WCI  24
6HR MIN TEMP:  32; 6HR MAX TEMP:  36;

WHEELING       MOCLDY    32  27  81 S9        30.03F WCI  24
6HR MIN TEMP:  32; 6HR MAX TEMP:  36;

NORTHERLY IS     N/A     33  27  79 S10         N/A  WCI  25
$$

WIZ051-052-058>065-066-070>072-220700-
SOUTHEAST WISCONSIN

CITY           SKY/WX    TMP DP  RH WIND       PRES   REMARKS
MILWAUKEE      CLOUDY    35  29  78 S10       30.01F WCI  27
6HR MIN TEMP:  35; 6HR MAX TEMP:  37;

KENOSHA*       CLOUDY    34  29  82 S10       30.00F HAZE    WCI  26
RACINE*        CLOUDY    35  29  78 S15       30.02F WCI  25
$$

INZ001>003-010>013-019-020-220700-
NORTHWEST INDIANA

CITY           SKY/WX    TMP DP  RH WIND       PRES   REMARKS
GARY*          NOT AVBL
MICHIGAN CITY* NOT AVBL
RENSSELAER*    NOT AVBL
$$

LMZ740>746-220700-
SOUTHERN LAKE MICHIGAN

STATION/POSITION TIME  SKY/WX   TEMP WIND        PRES    VSBY
                                AIR  DIR/SP/G
                 (UTC)          (F)  (DEG/KT/KT) (MB)    (MI)
HARRISON CRIB    0500            34  170/ 21/ 24   N/A
BURNHAM HARBOR   0600            33  170/  8/ 14   N/A
CALUMET HARBOR   0500            33  160/  9/ 14 1016.0F
BURNS HARBOR     NOT AVBL
MICHIGAN CITY    NOT AVBL
$$

ABBREVIATIONS USED IN REMARKS
   TC - TEMPERATURE IN CELSIUS
  WCI - WIND CHILL INDEX
   HX - HEAT INDEX
  VSB - VISIBILITY
$$


USA.gov is the U.S. government's official web portal to all federal, state and local government web resources and services.